NKS695 ESNU-ESSA

Flight info

Callsign NKS695
Flight time 0h 54m
Altitude 37000
Route DEDIT DCT BODRI DCT SIPRI T31 VACRA
Aircraft A320/M-SDE3FGHIRWY/LB1

Departure

Time 2026-05-04 09:40
Airport Umeå Airport (ESNU)

Arrival

Time 2026-05-04 10:34
Airport Stockholm-Arlanda Airport (ESSA)
Time Latitude Longitude Altitude Speed Heading
2026-05-04 09:11 63.79187 20.29033 32 ft 0 kts 49°
2026-05-04 09:31 63.79171 20.28995 30 ft 4 kts 30°
2026-05-04 09:31 63.79148 20.28979 30 ft 4 kts 342°
2026-05-04 09:32 63.79138 20.28991 30 ft 0 kts 313°
2026-05-04 09:35 63.79140 20.28986 29 ft 2 kts 313°
2026-05-04 09:35 63.79157 20.28945 30 ft 5 kts 313°
2026-05-04 09:37 63.79352 20.27941 33 ft 17 kts 318°
2026-05-04 09:37 63.79445 20.27754 33 ft 19 kts 318°
2026-05-04 09:38 63.79552 20.27541 32 ft 22 kts 319°
2026-05-04 09:38 63.79668 20.27311 33 ft 23 kts 319°
2026-05-04 09:38 63.79769 20.27129 35 ft 16 kts 329°
2026-05-04 09:38 63.79833 20.27024 35 ft 9 kts 316°
2026-05-04 09:39 63.79820 20.26997 35 ft 4 kts 157°
2026-05-04 09:39 63.79802 20.27036 35 ft 0 kts 137°
2026-05-04 09:39 63.79748 20.27146 35 ft 40 kts 138°
2026-05-04 09:40 63.79365 20.27913 34 ft 103 kts 139°
2026-05-04 09:40 63.78706 20.29232 101 ft 143 kts 142°
2026-05-04 09:40 63.77966 20.30698 763 ft 142 kts 141°
2026-05-04 09:40 63.77228 20.32170 1462 ft 141 kts 146°
2026-05-04 09:41 63.76478 20.33664 2036 ft 150 kts 144°
2026-05-04 09:42 63.67831 20.46092 5488 ft 252 kts 181°
2026-05-04 09:43 63.66059 20.46105 6300 ft 257 kts 184°
2026-05-04 09:43 63.64271 20.46046 7079 ft 261 kts 184°
2026-05-04 09:43 63.62438 20.45997 7898 ft 264 kts 185°
2026-05-04 09:43 63.60591 20.45869 8725 ft 267 kts 186°
2026-05-04 09:44 63.58747 20.45733 9557 ft 270 kts 186°
2026-05-04 09:44 63.56837 20.45615 10055 ft 284 kts 186°
2026-05-04 09:44 63.54781 20.45513 10290 ft 306 kts 185°
2026-05-04 09:46 63.39128 20.45241 14888 ft 331 kts 186°
2026-05-04 09:46 63.36818 20.45209 15509 ft 333 kts 186°
2026-05-04 09:46 63.34499 20.45177 16130 ft 335 kts 186°
2026-05-04 09:47 63.32162 20.45141 16760 ft 337 kts 186°
2026-05-04 09:47 63.29810 20.45105 17380 ft 339 kts 186°
2026-05-04 09:49 63.14068 20.36096 21344 ft 339 kts 204°
2026-05-04 09:49 63.11835 20.34399 21856 ft 340 kts 204°
2026-05-04 09:49 63.09588 20.32696 22382 ft 342 kts 204°
2026-05-04 09:51 62.95895 20.22377 24979 ft 352 kts 204°
2026-05-04 09:51 62.93564 20.20634 25377 ft 354 kts 204°
2026-05-04 09:51 62.91225 20.18891 25729 ft 355 kts 204°
2026-05-04 09:51 62.88905 20.17164 26092 ft 358 kts 204°
2026-05-04 09:52 62.86536 20.15395 26470 ft 360 kts 204°
2026-05-04 09:52 62.84162 20.13628 26843 ft 362 kts 204°
2026-05-04 09:52 62.81770 20.11858 27223 ft 364 kts 204°
2026-05-04 09:52 62.79365 20.10082 27589 ft 365 kts 204°
2026-05-04 09:53 62.76951 20.08299 27969 ft 367 kts 204°
2026-05-04 09:53 62.74523 20.06503 28340 ft 369 kts 204°
2026-05-04 09:53 62.72087 20.04704 28712 ft 371 kts 204°
2026-05-04 09:53 62.69632 20.02898 29080 ft 373 kts 204°
2026-05-04 09:54 62.67175 20.01089 29449 ft 375 kts 204°
2026-05-04 09:54 62.64684 19.99259 29792 ft 377 kts 203°
2026-05-04 09:54 62.62195 19.97437 30039 ft 379 kts 203°
2026-05-04 09:54 62.59677 19.95600 30320 ft 382 kts 203°
2026-05-04 09:55 62.57161 19.93768 30696 ft 381 kts 204°
2026-05-04 09:55 62.54645 19.91935 31073 ft 381 kts 204°
2026-05-04 09:55 62.52131 19.90106 31446 ft 382 kts 204°
2026-05-04 09:55 62.49648 19.88299 31815 ft 382 kts 204°
2026-05-04 09:56 62.47126 19.86470 32186 ft 382 kts 204°
2026-05-04 09:56 62.44604 19.84649 32560 ft 383 kts 204°
2026-05-04 09:56 62.42080 19.82831 32935 ft 383 kts 204°
2026-05-04 09:56 62.39547 19.81015 33314 ft 383 kts 204°
2026-05-04 09:57 62.37021 19.79205 33690 ft 383 kts 204°
2026-05-04 09:57 62.34483 19.77388 33969 ft 384 kts 204°
2026-05-04 09:57 62.31941 19.75568 34199 ft 385 kts 204°
2026-05-04 09:57 62.29396 19.73744 34449 ft 387 kts 204°
2026-05-04 09:58 62.26838 19.71913 34620 ft 389 kts 204°
2026-05-04 09:58 62.21678 19.68232 34670 ft 390 kts 204°
2026-05-04 10:00 62.01080 19.53690 34648 ft 390 kts 204°
2026-05-04 10:04 61.64892 19.28642 34665 ft 392 kts 203°
2026-05-04 10:04 61.59701 19.25095 34671 ft 392 kts 203°
2026-05-04 10:05 61.54518 19.21572 34672 ft 392 kts 203°
2026-05-04 10:05 61.49334 19.18063 34679 ft 391 kts 203°
2026-05-04 10:05 61.46747 19.16315 34537 ft 388 kts 203°
2026-05-04 10:06 61.44203 19.14600 34202 ft 382 kts 203°
2026-05-04 10:06 61.41691 19.12909 33872 ft 377 kts 203°
2026-05-04 10:06 61.39204 19.11240 33514 ft 372 kts 203°
2026-05-04 10:08 61.24860 19.01654 30946 ft 350 kts 203°
2026-05-04 10:08 61.22583 19.00135 30541 ft 347 kts 203°
2026-05-04 10:08 61.20296 18.98611 30147 ft 344 kts 203°
2026-05-04 10:08 61.18027 18.97102 29704 ft 341 kts 202°
2026-05-04 10:09 61.15779 18.95612 29228 ft 339 kts 202°
2026-05-04 10:09 61.13543 18.94136 28767 ft 336 kts 202°
2026-05-04 10:09 61.11318 18.92670 28302 ft 334 kts 202°
2026-05-04 10:09 61.09109 18.91217 27855 ft 332 kts 202°
2026-05-04 10:10 61.06912 18.89777 27433 ft 330 kts 203°
2026-05-04 10:10 61.04724 18.88345 27010 ft 328 kts 203°
2026-05-04 10:10 61.02555 18.86922 26588 ft 327 kts 203°
2026-05-04 10:10 61.00394 18.85506 26163 ft 325 kts 203°
2026-05-04 10:11 60.98249 18.84099 25740 ft 323 kts 203°
2026-05-04 10:11 60.96112 18.82698 25324 ft 321 kts 203°
2026-05-04 10:11 60.93982 18.81308 24908 ft 320 kts 203°
2026-05-04 10:11 60.91869 18.79932 24498 ft 318 kts 203°
2026-05-04 10:12 60.89761 18.78564 24054 ft 317 kts 203°
2026-05-04 10:12 60.87663 18.77201 23641 ft 315 kts 203°
2026-05-04 10:12 60.85576 18.75840 23226 ft 314 kts 203°
2026-05-04 10:12 60.83493 18.74489 22752 ft 313 kts 203°
2026-05-04 10:13 60.81422 18.73151 22289 ft 311 kts 203°
2026-05-04 10:13 60.79362 18.71824 21840 ft 310 kts 203°
2026-05-04 10:13 60.77310 18.70502 21403 ft 308 kts 203°
2026-05-04 10:13 60.75272 18.69187 20961 ft 307 kts 203°
2026-05-04 10:14 60.73237 18.67879 20530 ft 306 kts 203°
2026-05-04 10:14 60.71215 18.66580 20107 ft 304 kts 203°
2026-05-04 10:16 60.57263 18.57646 17206 ft 298 kts 203°
2026-05-04 10:16 60.55286 18.56392 16797 ft 297 kts 203°
2026-05-04 10:16 60.53315 18.55143 16395 ft 296 kts 203°
2026-05-04 10:16 60.51358 18.53904 16010 ft 295 kts 203°
2026-05-04 10:17 60.50034 18.53064 15746 ft 294 kts 203°
2026-05-04 10:17 60.48087 18.51829 15364 ft 293 kts 202°
2026-05-04 10:19 60.34610 18.43362 12807 ft 287 kts 202°
2026-05-04 10:19 60.32703 18.42171 12430 ft 287 kts 202°
2026-05-04 10:19 60.30798 18.40976 12061 ft 286 kts 202°
2026-05-04 10:19 60.28905 18.39782 11710 ft 285 kts 202°
2026-05-04 10:20 60.26948 18.38994 11350 ft 289 kts 189°
2026-05-04 10:20 60.24951 18.38714 11051 ft 287 kts 189°
2026-05-04 10:20 60.22975 18.38441 10763 ft 284 kts 189°
2026-05-04 10:20 60.21011 18.38164 10437 ft 283 kts 189°
2026-05-04 10:21 60.19054 18.37884 10108 ft 282 kts 188°
2026-05-04 10:21 60.17105 18.37605 9793 ft 281 kts 188°
2026-05-04 10:21 60.15162 18.37328 9477 ft 280 kts 188°
2026-05-04 10:21 60.13221 18.37048 9122 ft 279 kts 188°
2026-05-04 10:22 60.09376 18.36489 8459 ft 276 kts 188°
2026-05-04 10:22 60.07500 18.36217 8135 ft 274 kts 188°
2026-05-04 10:22 60.05584 18.35947 7782 ft 273 kts 188°
2026-05-04 10:23 60.03691 18.35684 7495 ft 271 kts 188°
2026-05-04 10:23 60.01838 18.35427 7365 ft 263 kts 188°
2026-05-04 10:25 59.90494 18.33504 6123 ft 216 kts 202°
2026-05-04 10:25 59.89129 18.32357 5967 ft 212 kts 213°
2026-05-04 10:25 59.87923 18.30708 5837 ft 209 kts 224°
2026-05-04 10:25 59.86826 18.28822 5712 ft 209 kts 220°
2026-05-04 10:26 59.85598 18.27245 5572 ft 210 kts 214°
2026-05-04 10:26 59.84340 18.25761 5447 ft 210 kts 214°
2026-05-04 10:26 59.83126 18.24162 5315 ft 206 kts 230°
2026-05-04 10:26 59.82513 18.21751 5185 ft 193 kts 264°
2026-05-04 10:27 59.82724 18.19195 5045 ft 188 kts 291°
2026-05-04 10:27 59.83363 18.17003 4930 ft 182 kts 298°
2026-05-04 10:27 59.84082 18.14936 4819 ft 180 kts 301°
2026-05-04 10:27 59.84824 18.12912 4672 ft 180 kts 302°
2026-05-04 10:28 59.85567 18.10909 4191 ft 181 kts 302°
2026-05-04 10:28 59.86313 18.08887 3763 ft 180 kts 302°
2026-05-04 10:28 59.87040 18.06877 3465 ft 178 kts 302°
2026-05-04 10:28 59.87616 18.04738 3180 ft 174 kts 280°
2026-05-04 10:29 59.87580 18.02407 3009 ft 172 kts 251°
2026-05-04 10:29 59.86934 18.00408 2831 ft 175 kts 223°
2026-05-04 10:29 59.85839 17.99369 2541 ft 178 kts 194°
2026-05-04 10:29 59.84624 17.98934 2476 ft 177 kts 194°
2026-05-04 10:30 59.83402 17.98485 2477 ft 179 kts 194°
2026-05-04 10:30 59.82178 17.98037 2482 ft 179 kts 194°
2026-05-04 10:30 59.80946 17.97585 2475 ft 180 kts 194°
2026-05-04 10:30 59.79713 17.97135 2480 ft 180 kts 194°
2026-05-04 10:31 59.78491 17.96690 2437 ft 172 kts 194°
2026-05-04 10:31 59.77375 17.96286 2299 ft 153 kts 195°
2026-05-04 10:32 59.71673 17.94205 1197 ft 137 kts 195°
2026-05-04 10:33 59.70739 17.93866 1007 ft 136 kts 194°
2026-05-04 10:33 59.69808 17.93528 809 ft 136 kts 193°
2026-05-04 10:33 59.68877 17.93190 620 ft 136 kts 194°
2026-05-04 10:33 59.67944 17.92847 434 ft 136 kts 194°
2026-05-04 10:34 59.67025 17.92516 252 ft 134 kts 193°
2026-05-04 10:34 59.66119 17.92189 122 ft 123 kts 192°
2026-05-04 10:34 59.65437 17.91932 107 ft 75 kts 190°
2026-05-04 10:34 59.65085 17.91811 104 ft 35 kts 190°
2026-05-04 10:35 59.64855 17.91728 107 ft 33 kts 190°
2026-05-04 10:35 59.64712 17.91708 108 ft 19 kts 176°
2026-05-04 10:35 59.64587 17.91756 107 ft 17 kts 161°
2026-05-04 10:35 59.64488 17.91879 109 ft 17 kts 98°
2026-05-04 10:36 59.64578 17.91992 110 ft 18 kts
2026-05-04 10:36 59.64715 17.92038 108 ft 22 kts 11°
2026-05-04 10:36 59.64876 17.92092 106 ft 25 kts
2026-05-04 10:36 59.64990 17.92137 106 ft 16 kts 13°
2026-05-04 10:37 59.65104 17.92187 107 ft 18 kts 22°
2026-05-04 10:37 59.65139 17.92324 111 ft 10 kts 84°
2026-05-04 10:37 59.65196 17.92383 112 ft 11 kts 12°
2026-05-04 10:37 59.65275 17.92434 111 ft 13 kts 27°
2026-05-04 10:39 59.65435 17.93352 111 ft 12 kts 163°
2026-05-04 10:39 59.65382 17.93384 112 ft 6 kts 149°
2026-05-04 10:39 59.65388 17.93450 110 ft 6 kts 77°
2026-05-04 10:40 59.65396 17.93511 112 ft 3 kts 76°
2026-05-04 10:40 59.65396 17.93515 112 ft 0 kts 76°